[[{"header":{"parameterUnit":"m.s-1","parameterCategory":1,"la1":30.2991,"la2":30.254,"lo1":-89.0895,"lo2":-89.0444,"dy":0.0017,"dx":0.0017,"nx":28,"ny":28,"refTime":"2025-05-22T09:00:00:Z","depth":0,"parameterNumber":2,"parameterNumberName":"U-component_of_WINDS"},"data":[0,0,0,0,0,0,0,0,0,0,0,0,0,0,0,0,0,0,0,0,0,0,0,0,0,0,0,0,0,0,0,0,0,0,0,0,0,0,0,0,0,0,0,0,0,0,0,0,0,0,0,0,0,0,0,0,0,0,1.7901,1.7902,0,1.8006,1.8007,1.8008,1.8018,1.8017,1.8016,1.8015,1.8122,1.8126,1.813,0,0,0,0,0,0,0,0,0,0,0,0,0,1.7708,1.7711,1.7901,1.7902,1.7903,1.8006,1.8007,1.8008,1.8018,1.8017,1.8015,1.8014,1.8121,1.8125,1.813,0,0,0,0,0,0,0,0,0,0,0,0,0,1.78,1.7712,1.7901,1.7921,1.7923,1.8005,1.8007,1.8009,1.8018,1.8017,1.8015,1.8014,1.8119,1.8125,1.8131,1.82,0,0,1.8149,1.8151,0,0,0,0,0,0,0,0,1.7795,1.7807,1.7916,1.7919,1.7923,1.7997,1.7978,1.8073,1.8019,1.7982,1.8015,1.8013,1.8082,1.8091,1.8114,1.8205,1.8209,1.8149,1.8153,1.8155,1.8157,0,0,0,0,0,0,0,1.7788,1.7803,1.7942,1.7918,1.7922,1.7924,1.7935,1.7996,1.804,1.7985,1.7986,1.7999,1.8083,1.8108,1.8117,1.8211,1.8149,1.8154,1.8158,1.816,1.8362,1.8364,0,0,0,0,0,0,1.7778,1.7797,1.7939,1.7945,1.7853,1.7929,1.7941,1.7975,1.8039,1.8048,1.8,1.7999,1.8099,1.811,1.812,1.8204,1.8155,1.8161,1.8164,1.836,1.8362,1.8364,0,0,0,0,0,0,1.7774,1.7791,1.7935,1.7872,1.789,1.7934,1.7971,1.7978,1.8003,1.805,1.8058,1.8018,1.8098,1.8112,1.818,1.8208,1.8163,1.8168,1.8358,1.8361,1.8363,1.8372,0,0,0,0,0,0,1.7768,1.7789,1.7816,1.7872,1.7893,1.7992,1.7973,1.7981,1.8013,1.8012,1.8069,1.8077,1.8098,1.8171,1.8185,1.8215,1.8173,1.8355,1.8359,1.8362,1.837,1.8375,1.838,0,0,0,0,0,1.7762,1.7815,1.7818,1.7835,1.7928,1.7994,1.8006,1.8029,1.8015,1.8042,1.8073,1.8075,1.8203,1.8178,1.8194,1.8226,1.8354,1.8358,1.8362,1.8367,1.8374,1.8379,0,0,0,0,0,0,1.7762,1.7823,1.7826,1.7899,1.7941,1.7996,1.803,1.8036,1.8083,1.808,1.8107,1.812,1.8186,1.8213,1.8184,1.8295,1.8277,1.8284,1.8275,1.8282,1.8286,1.8278,1.8178,0,0,0,0,0,1.777,1.7819,1.787,1.7929,1.795,1.7987,1.8016,1.8031,1.8075,1.8093,1.8128,1.8171,1.8221,1.8253,1.8302,1.8374,1.8386,1.8404,1.8409,1.8413,1.8419,1.8457,1.8465,1.8378,1.8378,1.8378,0,0,1.7788,1.7828,1.7857,1.793,1.7964,1.8013,1.8002,1.8054,1.8091,1.8101,1.8166,1.8194,1.8243,1.8313,1.8346,1.8337,1.8445,1.8418,1.8421,1.8425,1.8462,1.847,1.8478,1.8381,1.838,1.838,0,0,1.7845,1.7881,1.7934,1.7968,1.802,1.8043,1.8056,1.8109,1.8128,1.8194,1.8202,1.8246,1.8331,1.8365,1.8394,1.8464,1.8467,1.8479,1.8504,1.8541,1.8548,1.8554,1.8577,1.8585,1.8485,1.8485,1.8485,0,1.7861,1.7936,1.796,1.8012,1.8043,1.8055,1.8107,1.814,1.8205,1.8226,1.8216,1.8322,1.8357,1.8434,1.845,1.8474,1.8488,1.8472,1.8545,1.8552,1.8558,1.858,1.8589,1.8486,1.8486,1.8486,1.8486,0,1.7951,1.8003,1.8039,1.81,1.8136,1.8188,1.822,1.8253,1.8264,1.8289,1.8355,1.8397,1.8453,1.8473,1.8485,1.8551,1.8544,1.854,1.8521,1.8567,1.8588,1.8597,1.8487,1.8487,1.8487,1.8486,0,0,1.8011,1.8085,1.8098,1.8125,1.8182,1.8222,1.8275,1.8329,1.8356,1.8401,1.8445,1.8516,1.8512,1.8545,1.856,1.8593,1.8643,1.8585,1.8586,1.8592,1.8717,1.8718,1.8728,1.8646,1.8648,1.8649,1.8712,0,1.8073,1.8166,1.8189,1.8269,1.8315,1.8327,1.8372,1.8412,1.8436,1.8479,1.8507,1.8556,1.8548,1.8567,1.86,1.863,1.8668,1.8626,1.8686,1.8688,1.8671,1.8739,1.8741,1.8798,1.872,1.8722,1.8723,0,1.8158,1.8203,1.8287,1.8337,1.8358,1.8398,1.8449,1.8491,1.8536,1.8551,1.8587,1.8599,1.8653,1.8633,1.8707,1.8678,1.8704,1.8723,1.8725,1.873,1.8707,1.8744,1.8817,1.8825,1.8737,1.8735,1.8735,0,1.8191,1.8273,1.8333,1.8356,1.8417,1.8444,1.8471,1.8515,1.8545,1.859,1.861,1.8661,1.8689,1.8728,1.8753,1.8736,1.8824,1.8807,1.8838,1.8837,1.8854,1.8852,1.893,1.8874,1.8874,1.8874,1.8874,0,1.8257,1.8307,1.8348,1.8385,1.8441,1.8467,1.8522,1.8549,1.8587,1.8629,1.8643,1.8681,1.8713,1.8757,1.8777,1.8834,1.8847,1.886,1.8865,1.8858,1.8856,1.8874,1.887,1.8876,1.8876,1.8875,1.8875,0,1.8302,1.8332,1.8397,1.8449,1.8463,1.8502,1.8546,1.8582,1.8606,1.8659,1.8673,1.8712,1.8763,1.8792,1.8858,1.8871,1.8934,1.8938,1.8918,1.892,1.8948,1.8944,1.9039,1.9052,1.8989,1.8989,1.899,0,1.8341,1.8379,1.8435,1.8463,1.849,1.8536,1.8568,1.8595,1.8627,1.868,1.8709,1.8761,1.8804,1.8886,1.8919,1.8969,1.8973,1.9002,1.898,1.8971,1.8971,1.8967,1.897,1.9006,1.9006,1.9007,1.9007,0,1.8406,1.8419,1.8463,1.8513,1.8549,1.859,1.863,1.8653,1.8686,1.8722,1.8774,1.8807,1.8873,1.8924,1.8976,1.9003,1.901,1.9014,1.9023,1.9016,1.9002,1.9008,1.8927,1.9011,1.9011,1.901,1.901,1.901,1.8448,1.8482,1.8526,1.8575,1.8608,1.8644,1.868,1.8709,1.8753,1.8808,1.8822,1.8876,1.892,1.899,1.9018,1.9061,1.9056,1.907,1.9073,1.9076,1.9075,1.8997,1.9071,1.9071,1.9071,1.9071,1.9071,0,1.8512,1.8541,1.8586,1.8641,1.8679,1.8683,1.8727,1.8758,1.8806,1.8846,1.8887,1.8947,1.8996,1.9034,1.9084,1.9111,1.9115,1.9123,1.912,1.9126,1.9078,1.9064,1.9118,1.9118,1.9118,1.9118,1.9118,1.9118,1.855,1.8607,1.8625,1.8698,1.8727,1.878,1.8805,1.8838,1.887,1.8935,1.8976,1.9,1.9039,1.9092,1.9137,1.9147,1.9164,1.9171,1.9181,1.9135,1.913,1.9125,1.9111,1.9175,1.9175,1.9225,1.9226,1.9226]},{"header":{"parameterUnit":"m.s-1","parameterCategory":1,"la1":30.2991,"la2":30.254,"lo1":-89.0895,"lo2":-89.0444,"dy":0.0017,"dx":0.0017,"nx":28,"ny":28,"refTime":"2025-05-22T09:00:00:Z","depth":0,"parameterNumber":3,"parameterNumberName":"V-component_of_WINDS"},"data":[0,0,0,0,0,0,0,0,0,0,0,0,0,0,0,0,0,0,0,0,0,0,0,0,0,0,0,0,0,0,0,0,0,0,0,0,0,0,0,0,0,0,0,0,0,0,0,0,0,0,0,0,0,0,0,0,0,0,3.8555,3.8554,0,3.8537,3.8537,3.8537,3.8461,3.8459,3.8457,3.8455,3.8439,3.844,3.8441,0,0,0,0,0,0,0,0,0,0,0,0,0,3.8522,3.8523,3.8555,3.8554,3.8554,3.8537,3.8537,3.8537,3.8461,3.8459,3.8457,3.8454,3.8438,3.844,3.8441,0,0,0,0,0,0,0,0,0,0,0,0,0,3.8524,3.8523,3.8555,3.8514,3.851,3.8538,3.8537,3.8537,3.8461,3.8459,3.8456,3.8453,3.8438,3.844,3.8441,3.8507,0,0,3.8447,3.8448,0,0,0,0,0,0,0,0,3.8524,3.8525,3.852,3.8517,3.8513,3.8498,3.8519,3.8527,3.8462,3.848,3.8455,3.8452,3.8461,3.8461,3.8463,3.8506,3.8505,3.8447,3.8448,3.8449,3.845,0,0,0,0,0,0,0,3.8524,3.8525,3.8548,3.852,3.8516,3.8497,3.8494,3.8521,3.8486,3.8478,3.8473,3.8472,3.8458,3.8462,3.8462,3.8505,3.8447,3.8449,3.845,3.8451,3.8599,3.8601,0,0,0,0,0,0,3.8529,3.8526,3.8548,3.8547,3.8512,3.85,3.8497,3.8506,3.8485,3.8479,3.8474,3.8468,3.846,3.846,3.8461,3.8535,3.8449,3.8451,3.8452,3.8596,3.8599,3.8602,0,0,0,0,0,0,3.8529,3.8532,3.8549,3.8535,3.8536,3.8503,3.8514,3.8507,3.851,3.8482,3.8475,3.8484,3.8458,3.8459,3.8495,3.8533,3.8452,3.8453,3.8592,3.8597,3.8601,3.8683,0,0,0,0,0,0,3.8528,3.8532,3.8556,3.8536,3.8537,3.8583,3.8516,3.8508,3.8513,3.8506,3.8489,3.8484,3.8456,3.8493,3.8497,3.8534,3.8455,3.8589,3.8594,3.8599,3.8677,3.869,3.8701,0,0,0,0,0,3.8527,3.8581,3.8558,3.8561,3.8566,3.8586,3.8586,3.8552,3.8517,3.8541,3.8523,3.8485,3.8529,3.8498,3.8502,3.854,3.8586,3.8593,3.8599,3.8672,3.8687,3.8701,0,0,0,0,0,0,3.8607,3.8577,3.8552,3.86,3.8596,3.8573,3.8602,3.857,3.8576,3.8568,3.8526,3.8523,3.8566,3.8557,3.8522,3.8601,3.8551,3.8559,3.8605,3.862,3.8631,3.8632,3.8456,0,0,0,0,0,3.863,3.8648,3.8622,3.8667,3.8666,3.8635,3.8642,3.8616,3.861,3.8608,3.8592,3.8588,3.8601,3.861,3.862,3.8676,3.8671,3.8704,3.8716,3.8726,3.8733,3.876,3.8774,3.8623,3.8623,3.8623,0,0,3.8678,3.8665,3.8678,3.8683,3.8676,3.8696,3.8634,3.8657,3.8671,3.8612,3.8644,3.8633,3.8626,3.8672,3.8692,3.8666,3.8774,3.8734,3.8742,3.8743,3.8768,3.8783,3.8795,3.8627,3.8627,3.8626,0,0,3.8775,3.8768,3.8804,3.8798,3.8789,3.8768,3.8777,3.8759,3.8748,3.8781,3.8736,3.8753,3.8776,3.8772,3.8773,3.8869,3.8834,3.8874,3.8935,3.8963,3.8975,3.8985,3.9018,3.903,3.8881,3.8881,3.8881,0,3.8836,3.8863,3.8827,3.8852,3.8855,3.8802,3.8838,3.8835,3.8831,3.8834,3.8805,3.8832,3.8824,3.8868,3.8891,3.8894,3.8902,3.8875,3.8976,3.8986,3.8995,3.9026,3.9038,3.8886,3.8885,3.8885,3.8884,0,3.8938,3.8958,3.8988,3.8984,3.899,3.9022,3.8989,3.9001,3.8975,3.8956,3.899,3.8978,3.8984,3.8993,3.8968,3.9033,3.9017,3.8984,3.8932,3.9015,3.9043,3.9055,3.8893,3.8891,3.889,3.8888,0,0,3.9084,3.9058,3.907,3.9067,3.9053,3.9068,3.9097,3.9102,3.9112,3.9111,3.9133,3.9155,3.9122,3.9124,3.9098,3.9123,3.9198,3.9085,3.9084,3.9105,3.9267,3.9292,3.9306,3.9175,3.9177,3.9179,3.9267,0,3.9175,3.9221,3.9189,3.9241,3.9258,3.9209,3.9233,3.9228,3.9212,3.9224,3.9207,3.9222,3.9179,3.918,3.9202,3.9184,3.9229,3.9177,3.9195,3.9196,3.9196,3.9321,3.9347,3.9431,3.9278,3.928,3.9281,0,3.9287,3.929,3.9343,3.9325,3.9331,3.9354,3.9356,3.9369,3.9362,3.9349,3.935,3.9318,3.9345,3.9296,3.9332,3.9298,3.9303,3.9296,3.9298,3.9297,3.9242,3.9321,3.9457,3.9469,3.9299,3.9297,3.9296,0,3.9385,3.9403,3.9437,3.9436,3.9416,3.9433,3.9426,3.9416,3.9421,3.9424,3.9427,3.9433,3.9436,3.9442,3.9412,3.938,3.9452,3.9401,3.9441,3.9442,3.9457,3.9456,3.9593,3.9464,3.9464,3.9463,3.9463,0,3.9489,3.9524,3.948,3.9501,3.9538,3.9501,3.9539,3.9526,3.9518,3.9536,3.9494,3.9511,3.9472,3.9486,3.9463,3.9496,3.9498,3.9488,3.9481,3.949,3.9491,3.9492,3.9485,3.9467,3.9466,3.9465,3.9465,0,3.9605,3.9577,3.9611,3.9589,3.9585,3.9613,3.9594,3.9613,3.9594,3.9617,3.962,3.9592,3.9605,3.9577,3.9587,3.9572,3.9618,3.9603,3.962,3.9614,3.9656,3.9652,3.9797,3.9813,3.9675,3.9677,3.9678,0,3.9672,3.9697,3.9678,3.9686,3.9681,3.9695,3.97,3.9665,3.9672,3.9666,3.9685,3.9695,3.9701,3.9725,3.9706,3.9713,3.9697,3.9747,3.9698,3.9706,3.9695,3.9694,3.9695,3.9757,3.9759,3.976,3.9761,0,3.9793,3.9778,3.9787,3.9791,3.9798,3.9799,3.9798,3.9808,3.977,3.9781,3.9794,3.9798,3.9808,3.9819,3.9822,3.9814,3.9781,3.9777,3.9786,3.9795,3.9803,3.9798,3.9645,3.9773,3.9772,3.9771,3.9771,3.977,3.9885,3.9904,3.9894,3.9904,3.99,3.99,3.9915,3.9899,3.9909,3.9914,3.9893,3.9911,3.9903,3.9903,3.9899,3.9913,3.989,3.9904,3.9907,3.9911,3.9917,3.9803,3.9913,3.9913,3.9913,3.9912,3.9912,0,4.0002,3.9993,4.0003,4.0002,4.0011,3.998,3.9977,3.9986,4.0002,3.9997,4.0004,4.0019,4.0029,4.001,4.0017,4.0031,4.0016,4.0034,4.0032,4.003,3.9937,3.9928,4.0046,4.0046,4.0046,4.0046,4.0046,4.0046,4.0064,4.0095,4.0079,4.0107,4.0098,4.0114,4.0115,4.0115,4.011,4.0129,4.0136,4.0124,4.0114,4.012,4.0127,4.0122,4.0125,4.0148,4.0137,4.005,4.0037,4.0025,4.0015,4.015,4.015,4.0229,4.0229,4.023]}]]